FW5968 Weather Reports


time (UTC)temp
C
wind
direction
speed
KPH
gust
KPH
rain 1hr
cm
rain 24hr
cm
rain mn
cm
humidity
%
barometer
mb
20260905025015 22 0.0 0.0 0.00 0.00 0.00 71 1017.4
20260905024016 22 0.0 0.0 0.00 0.00 0.00 71 1017.5
20260905023015 22 0.0 0.0 0.00 0.00 0.00 71 1017.7
20260905022015 22 0.0 0.0 0.00 0.00 0.00 71 1017.7
20260905021035 22 0.0 0.0 0.00 0.00 0.00 71 1017.8
20260905020017 22 0.0 0.0 0.00 0.00 0.00 71 1017.8
20260905015015 22 0.0 0.0 0.00 0.00 0.00 70 1017.8
20260905014015 23 0.0 0.0 0.00 0.00 0.00 70 1017.8
20260905013016 23 0.0 0.0 0.00 0.00 0.00 70 1017.9
20260905012015 23 0.0 0.0 0.00 0.00 0.00 70 1017.9
20260905011016 23 0.0 0.0 0.00 0.00 0.00 70 1017.9
20260905010015 23 0.0 0.0 0.00 0.00 0.00 70 1017.9
20260905005036 23 0.0 0.0 0.00 0.00 0.00 70 1018.0
20260905004015 23 0.0 0.0 0.00 0.00 0.00 70 1018.2
20260905003015 23 0.0 0.0 0.00 0.00 0.00 69 1018.3
20260905002015 23 0.0 0.0 0.00 0.00 0.00 69 1018.4
20260905001016 23 0.0 0.0 0.00 0.00 0.00 69 1018.4
20260905000015 24 0.0 0.0 0.00 0.00 0.00 69 1018.5
20260904235015 24 0.0 0.0 0.00 0.00 0.00 69 1018.3
20260904234056 24 0.0 0.0 0.00 0.00 0.00 69 1018.6
20260904233015 25 0.0 0.0 0.00 0.00 0.00 69 1018.6
20260904232016 25 0.0 0.0 0.00 0.00 0.00 69 1018.6
20260904231015 24 0.0 0.0 0.00 0.00 0.00 70 1018.5
20260904230015 24 0.0 0.0 0.00 0.00 0.00 69 1018.3
20260904225056 24 0.0 0.0 0.00 0.00 0.00 69 1018.4
20260904224016 23 0.0 0.0 0.00 0.00 0.00 67 1018.4
20260904223015 24 0.0 0.0 0.00 0.00 0.00 66 1018.2
20260904222016 24 0.0 0.0 0.00 0.00 0.00 65 1018.6
20260904221015 25 0.0 0.0 0.00 0.00 0.00 64 1018.5
20260904220015 26 0.0 0.0 0.00 0.00 0.00 62 1018.6
20260904215036 26 0.0 0.0 0.00 0.00 0.00 60 1018.7
20260904214015 27 0.0 0.0 0.00 0.00 0.00 58 1018.7
20260904213055 29 0.0 0.0 0.00 0.00 0.00 56 1018.6
20260904212015 29 0.0 0.0 0.00 0.00 0.00 56 1018.4
20260904211016 29 0.0 0.0 0.00 0.00 0.00 57 1018.4
20260904210015 28 0.0 0.0 0.00 0.00 0.00 58 1018.4
20260904205016 28 0.0 0.0 0.00 0.00 0.00 58 1018.4
20260904204015 28 0.0 0.0 0.00 0.00 0.00 59 1018.4
20260904203015 28 0.0 0.0 0.00 0.00 0.00 59 1018.4
20260904202016 28 0.0 0.0 0.00 0.00 0.00 60 1018.2
20260904201015 28 0.0 0.0 0.00 0.00 0.00 60 1018.1
20260904200035 28 0.0 0.0 0.00 0.00 0.00 61 1018.0
20260904195016 28 0.0 0.0 0.00 0.00 0.00 62 1018.0
20260904194015 28 0.0 0.0 0.00 0.00 0.00 62 1017.9
20260904193015 28 0.0 0.0 0.00 0.00 0.00 62 1017.8
20260904192036 28 0.0 0.0 0.00 0.00 0.00 63 1017.8
20260904191015 28 0.0 0.0 0.00 0.00 0.00 64 1017.9
20260904190056 28 0.0 0.0 0.00 0.00 0.00 65 1017.9
20260904185035 29 0.0 0.0 0.00 0.00 0.00 66 1017.8
20260904184015 29 0.0 0.0 0.00 0.00 0.00 67 1017.8
20260904183016 29 0.0 0.0 0.00 0.00 0.00 69 1017.9
20260904182036 29 0.0 0.0 0.00 0.00 0.00 70 1017.9
20260904181035 29 0.0 0.0 0.00 0.00 0.00 70 1017.9
20260904180016 29 0.0 0.0 0.00 0.00 0.00 69 1018.0
20260904175016 29 0.0 0.0 0.00 0.00 0.00 69 1018.1
20260904174015 30 0.0 0.0 0.00 0.00 0.00 69 1018.3
20260904173016 29 0.0 0.0 0.00 0.00 0.00 69 1018.3
20260904172016 29 0.0 0.0 0.00 0.00 0.00 68 1018.3
20260904171015 30 0.0 0.0 0.00 0.00 0.00 68 1018.5
20260904170016 30 0.0 0.0 0.00 0.00 0.00 68 1018.6
20260904165016 29 0.0 0.0 0.00 0.00 0.00 67 1018.5
20260904164015 28 0.0 0.0 0.00 0.00 0.00 67 1018.6
20260904163015 28 0.0 0.0 0.00 0.00 0.00 67 1018.6
20260904162036 28 0.0 0.0 0.00 0.00 0.00 68 1018.7
20260904161015 27 0.0 0.0 0.00 0.00 0.00 70 1018.6
20260904160015 27 0.0 0.0 0.00 0.00 0.00 71 1018.7
20260904155016 27 0.0 0.0 0.00 0.00 0.00 74 1019.0
20260904154015 27 0.0 0.0 0.00 0.00 0.00 75 1019.8
20260904153015 27 0.0 0.0 0.00 0.00 0.00 75 1020.5
20260904152015 27 0.0 0.0 0.00 0.00 0.00 75 1020.7
20260904151016 27 0.0 0.0 0.00 0.00 0.00 75 1020.9
20260904150015 27 0.0 0.0 0.00 0.00 0.00 75 1020.8
20260904145015 28 0.0 0.0 0.00 0.00 0.00 75 1021.0
20260904144016 28 0.0 0.0 0.00 0.00 0.00 75 1020.9
20260904143056 28 0.0 0.0 0.00 0.00 0.00 75 1020.9
20260904142015 30 0.0 0.0 0.00 0.00 0.00 75 1020.8
20260904141015 30 0.0 0.0 0.00 0.00 0.00 76 1020.7
20260904140016 29 0.0 0.0 0.00 0.00 0.00 76 1020.1
20260904135017 30 0.0 0.0 0.00 0.00 0.00 76 1020.1
20260904134016 29 0.0 0.0 0.00 0.00 0.00 76 1020.0
20260904133015 28 0.0 0.0 0.00 0.00 0.00 76 1019.8
20260904132016 28 0.0 0.0 0.00 0.00 0.00 77 1020.4
20260904131035 27 0.0 0.0 0.00 0.00 0.00 77 1020.7
20260904130015 27 0.0 0.0 0.00 0.00 0.00 76 1020.1
20260904125036 27 0.0 0.0 0.00 0.00 0.00 77 1020.9
20260904124016 27 0.0 0.0 0.00 0.00 0.00 77 1020.8
20260904123016 27 0.0 0.0 0.00 0.00 0.00 77 1021.2
20260904122015 27 0.0 0.0 0.00 0.00 0.00 77 1020.8
20260904121036 27 0.0 0.0 0.00 0.00 0.00 77 1020.7
20260904120015 27 0.0 0.0 0.00 0.00 0.00 77 1021.2
20260904115016 27 0.0 0.0 0.00 0.00 0.00 77 1021.2
20260904114015 27 0.0 0.0 0.00 0.00 0.00 77 1020.9
20260904113015 26 0.0 0.0 0.00 0.00 0.00 77 1020.9
20260904112016 26 0.0 0.0 0.00 0.00 0.00 77 1020.8
20260904111015 26 0.0 0.0 0.00 0.00 0.00 77 1021.1
20260904110015 26 0.0 0.0 0.00 0.00 0.00 77 1020.8
20260904105016 26 0.0 0.0 0.00 0.00 0.00 77 1021.1
20260904104015 26 0.0 0.0 0.00 0.00 0.00 76 1021.1
20260904103015 26 0.0 0.0 0.00 0.00 0.00 77 1020.7
20260904102016 26 0.0 0.0 0.00 0.00 0.00 77 1020.1
20260904101016 25 0.0 0.0 0.00 0.00 0.00 77 1019.7
20260904100015 25 0.0 0.0 0.00 0.00 0.00 77 1019.1
20260904095016 25 0.0 0.0 0.00 0.00 0.00 78 1018.9
20260904094015 25 0.0 0.0 0.00 0.00 0.00 78 1019.1
20260904093015 24 0.0 0.0 0.00 0.00 0.00 79 1019.4
20260904092015 24 0.0 0.0 0.00 0.00 0.00 80 1019.9
20260904091016 24 0.0 0.0 0.00 0.00 0.00 80 1020.6
20260904090015 23 0.0 0.0 0.00 0.00 0.00 81 1020.3
20260904085015 23 0.0 0.0 0.00 0.00 0.00 81 1020.4
20260904084016 22 0.0 0.0 0.00 0.00 0.00 81 1020.2
20260904083016 22 0.0 0.0 0.00 0.00 0.00 78 1020.9
20260904082015 22 0.0 0.0 0.00 0.00 0.00 78 1021.2
20260904081015 22 0.0 0.0 0.00 0.00 0.00 78 1021.1
20260904080036 22 0.0 0.0 0.00 0.00 0.00 78 1020.6
20260904075016 22 0.0 0.0 0.00 0.00 0.00 78 1020.0
20260904074015 22 0.0 0.0 0.00 0.00 0.00 77 1020.4
20260904073036 22 0.0 0.0 0.00 0.00 0.00 77 1020.4
20260904072016 22 0.0 0.0 0.00 0.00 0.00 77 1020.0
20260904071016 23 0.0 0.0 0.00 0.00 0.00 77 1020.1
20260904070015 23 0.0 0.0 0.00 0.00 0.00 77 1019.9
20260904065016 23 0.0 0.0 0.00 0.00 0.00 78 1019.3
20260904064015 23 0.0 0.0 0.00 0.00 0.00 78 1019.3
20260904063015 23 0.0 0.0 0.00 0.00 0.00 78 1019.5
20260904062016 22 0.0 0.0 0.00 0.00 0.00 78 1019.6
20260904061015 22 0.0 0.0 0.00 0.00 0.00 77 1019.7
20260904060016 22 0.0 0.0 0.00 0.00 0.00 78 1019.8
20260904055028 22 0.0 0.0 0.00 0.00 0.00 77 1019.4
20260904054015 23 0.0 0.0 0.00 0.00 0.00 76 1019.3
20260904053036 23 0.0 0.0 0.00 0.00 0.00 74 1019.2
20260904052016 23 0.0 0.0 0.00 0.00 0.00 74 1019.5
20260904051116 23 0.0 0.0 0.00 0.00 0.00 74 1019.3
20260904050036 23 0.0 0.0 0.00 0.00 0.00 73 1017.7
20260904045015 23 0.0 0.0 0.00 0.00 0.00 72 1018.1
20260904044016 24 0.0 0.0 0.00 0.00 0.00 71 1017.8
20260904043015 24 0.0 0.0 0.00 0.00 0.00 71 1017.7
20260904042015 25 0.0 0.0 0.00 0.00 0.00 71 1018.0
20260904041016 25 0.0 0.0 0.00 0.00 0.00 71 1017.7
20260904040015 25 0.0 0.0 0.00 0.00 0.00 72 1018.1
20260904035015 25 0.0 0.0 0.00 0.00 0.00 72 1017.2
20260904034016 24 0.0 0.0 0.00 0.00 0.00 73 1017.3
20260904033035 23 0.0 0.0 0.00 0.00 0.00 74 1017.8
20260904032016 23 0.0 0.0 0.00 0.00 0.00 73 1018.4
20260904031016 23 0.0 0.0 0.00 0.00 0.00 72 1018.5
20260904030015 23 0.0 0.0 0.00 0.00 0.00 71 1018.8